Location: Lane
(33.5226°N, 79.8788°W)
Time: 19:37:48
(UTC+00:00)

Courier 1B - Pass Details

Date: 04 October 2022
Orbit: 962 x 1209 km, 28.3° (Epoch: 27 November)

Event Time Altitude Azimuth Distance (km) Brightness Sun altitude
Rises 23:07:21 0° 271° (W) 3,875 13.7 -2.4°
Reaches altitude 10° 23:10:23 10° 263° (W) 2,877 12.0 -3.0°
Maximum altitude 23:16:38 36° 199° (SSW) 1,552 8.8 -4.3°
Drops below altitude 10° 23:22:35 10° 135° (SE) 2,731 9.5 -5.6°
Sets 23:25:24 0° 126° (SE) 3,656 10.0 -6.2°
